sat.trackr.live / text

‹ back to catalog

IRIDIUM 170

NORAD 43930 · 2019-002J

PAYLOAD ACTIVE UNKNOWN

§ Identity

Operator
Country
US
Launch date
2019-01-11
Launch site
AFWTR
Launch vehicle
Mass (kg)
RCS (m²)

Purposes: comms

External: N2YO · Heavens-Above · Gunter

§ Orbital elements

Epoch: 2026-05-25T02:58:43.925664Z

Period
97.81 min
Inclination
86.6105°
Eccentricity
0.0002379
Mean motion
14.72254020 rev/d
Perigee alt
652.2 km
Apogee alt
655.6 km
Semi-major
7,032.0 km
B*
9.7740e-5
RAAN
3.1894°
Arg perigee
90.0238°
Mean anomaly
270.1252°
Rev number
39,586

§ Raw data

IRIDIUM 1701 43930U 19002J   26145.12411951  .00000641  00000+0  97740-4 0  99942 43930  86.6105   3.1894 0002379  90.0238 270.1252 14.72254020395862

JSON: /api/v1/satellites/43930 · /tle

For live sub-satellite position, see the globe view (requires WebGL).

§ Visibility from observer

Set your observer location to see the next 7 days of passes ≥ 10°. The values pass through the URL so the page stays shareable.

No JS? Fill the form by hand. The geolocation button needs JavaScript.